Location: Chmeln�
(49.6483°N, 14.9871°E)
Time: 02:29:45
(UTC+00:00)

Cosmos 1833 Rocket - Pass Details

Date: 18 September 2020
Orbit: 831 x 841 km, 71.0° (Epoch: 24 October)

Event Time Altitude Azimuth Distance (km) Brightness Sun altitude
Rises 19:59:37 0° 332° (NNW) 3,408 6.9 -26.7°
Reaches altitude 10° 20:02:06 10° 335° (NNW) 2,470 5.9 -27.0°
Enters shadow 20:07:30 64° 43° (NE) 935 2.8 -27.7°
